DALIAN/DAIREN/LUDA current weather conditions

sailwx.info

Wind from 260 at 1 knots

Air temperature -0.0° C
Visibility: greater than 5.4 NM
Dewpoint -7.0° C

Last reported at 2017-Nov-20 17:00 UTC.
Time now 2017-Nov-20 17:31 UTC

Location: N 38°58' E 121°32'.
View on Google Maps.

See reports from other nearby stations

  
Tides and Currents Weather Stations Pressure Air Temp Water Temp Dewpoint Dewpoint Depression Visibility Wind Speed Wind Dir Waves Ship Positions
date/time (UTC)wind fromknots sea level pressurealtimeterstation pressurevisibilityair tempwater tempwave heightnotes
2017-Nov-20 17:00 260 1 5.4-0.0
2017-Nov-20 16:30 5.4-0.0
2017-Nov-20 16:00 5.4-1.0
2017-Nov-20 15:30 5.4-1.0
2017-Nov-20 15:00 5.4 1.0
2017-Nov-20 14:30 290 3 5.4-1.0
2017-Nov-20 14:00 5.4 1.0
2017-Nov-20 13:30 290 1 5.4 1.0
2017-Nov-20 13:00 280 1 5.4-0.0
2017-Nov-20 12:30 280 1 5.4-0.0
2017-Nov-20 12:00 290 3 5.4 1.0
2017-Nov-20 11:30 280 1 5.4 1.0
2017-Nov-20 11:00 5.4 2.0
2017-Nov-20 10:30 5.4 3.0
2017-Nov-20 10:00 100 3 5.4 3.0
2017-Nov-20 09:30 110 3 5.4 4.0
2017-Nov-20 09:00 070 3 5.4 4.0
2017-Nov-20 08:30 020 5 5.4 4.0
2017-Nov-20 08:00 350 5 5.4 5.0
2017-Nov-20 07:30 360 7 5.4 5.0
2017-Nov-20 07:00 360 7 5.4 6.0
2017-Nov-20 06:30 330 9 5.4 6.0
2017-Nov-20 06:00 330 9 5.4 6.0
2017-Nov-20 05:30 350 9 5.4 6.0
2017-Nov-20 05:00 340 9 5.4 6.0
2017-Nov-20 04:30 340 9 5.4 6.0
2017-Nov-20 04:00 010 9 5.4 6.0
2017-Nov-20 03:30 010 9 5.4 6.0
2017-Nov-20 03:00 030 7 5.4 7.0
2017-Nov-20 02:30 010 7 5.4 6.0
2017-Nov-20 02:00 010 9 5.4 6.0
2017-Nov-20 01:30 340 11 5.4 6.0
2017-Nov-20 01:00 360 9 5.4 6.0
2017-Nov-20 00:30 350 9 5.4 6.0
2017-Nov-20 00:00 340 7 5.4 5.0
2017-Nov-19 23:30 340 7 5.4 5.0
2017-Nov-19 23:00 340 5 5.4 5.0
2017-Nov-19 22:30 320 7 5.4 5.0
2017-Nov-19 22:00 300 9 5.4 5.0
2017-Nov-19 21:30 290 11 5.4 4.0
2017-Nov-19 21:00 280 7 5.4 2.0
2017-Nov-19 20:30 5.4-3.0
2017-Nov-19 20:00 5.4-2.0
2017-Nov-19 19:30 5.4-3.0
2017-Nov-19 19:00 5.4-2.0
2017-Nov-19 18:30 310 1 5.4-3.0
2017-Nov-19 18:00 5.4-3.0
2017-Nov-19 17:30 5.4-3.0
2017-Nov-19 17:00 5.4-3.0
2017-Nov-19 16:30 260 1 5.4-3.0
2017-Nov-19 16:00 290 3 5.4-2.0
2017-Nov-19 15:30 280 3 5.4-4.0
2017-Nov-19 15:00 290 1 5.4-2.0
2017-Nov-19 14:30 5.4-2.0
2017-Nov-19 14:00 5.4-2.0
2017-Nov-19 13:30 280 1 5.4-2.0
2017-Nov-19 13:00 280 3 5.4-2.0
2017-Nov-19 12:30 260 3 5.4-1.0
2017-Nov-19 12:00 5.4-1.0
2017-Nov-19 11:30 5.4-1.0
2017-Nov-19 11:00 5.4-1.0
2017-Nov-19 10:30 5.4-1.0
2017-Nov-19 10:00 5.4-1.0
2017-Nov-19 09:30 290 3 5.4-1.0
2017-Nov-19 09:00 350 3 5.4-0.0
2017-Nov-19 08:30 330 3 5.4-0.0
2017-Nov-19 08:00 020 5 5.4-0.0
2017-Nov-19 07:30 350 5 5.4 1.0
2017-Nov-19 07:00 010 5 5.4 1.0
2017-Nov-19 06:30 360 5 5.4 1.0
2017-Nov-19 06:00 360 7 5.4 1.0
2017-Nov-19 05:30 360 7 5.4 1.0
2017-Nov-19 05:00 350 5 gusting 15 5.4 2.0
2017-Nov-19 04:30 030 7 5.4 1.0
2017-Nov-19 04:00 350 9 5.4 1.0
2017-Nov-19 03:30 360 9 gusting 19 5.4 1.0
2017-Nov-19 03:00 010 11 5.4 1.0
2017-Nov-19 02:30 360 9 5.4-0.0
2017-Nov-19 02:00 030 9 5.4-0.0
2017-Nov-19 01:30 360 9 5.4-0.0
2017-Nov-19 01:00 360 7 5.4-0.0
2017-Nov-19 00:30 350 7 5.4-0.0
2017-Nov-19 00:00 010 7 5.4-1.0
2017-Nov-18 23:30 020 5 5.4-1.0
2017-Nov-18 23:00 030 5 5.4-1.0
2017-Nov-18 22:30 010 5 5.4-0.0
2017-Nov-18 22:00 020 5 5.4-0.0
2017-Nov-18 21:30 010 3 5.4-0.0
2017-Nov-18 21:00 030 7 5.4 1.0
2017-Nov-18 20:30 020 9 5.4 2.0
2017-Nov-18 20:00 350 7 5.4 3.0
2017-Nov-18 19:30 350 5 5.4 3.0
2017-Nov-18 19:00 350 9 5.4 4.0
2017-Nov-18 18:30 310 13 5.4 4.0
2017-Nov-18 18:00 300 13 5.4 4.0
2017-Nov-18 17:30 300 13 5.4 4.0
2017-Nov-18 17:00 300 15 5.4 4.0